FIRE34 KHRT-KTTS

Flight info

Callsign FIRE34
Flight time N/A
Altitude 2500
Route VFR
Aircraft V22/M-S/C

Departure

Time 2026-05-08 09:03
Airport Hurlburt Field (KHRT)

Arrival

Time N/A
Airport Space Florida Launch and Landing Facility (KTTS)
Time Latitude Longitude Altitude Speed Heading
2026-05-08 08:49 30.42522 -86.68448 41 ft 0 kts 177°
2026-05-08 09:00 30.42485 -86.68483 41 ft 12 kts 219°
2026-05-08 09:00 30.42413 -86.68528 41 ft 12 kts 239°
2026-05-08 09:01 30.42427 -86.68618 41 ft 12 kts 300°
2026-05-08 09:01 30.42472 -86.68698 42 ft 12 kts 303°
2026-05-08 09:01 30.42511 -86.68782 48 ft 12 kts 272°
2026-05-08 09:01 30.42545 -86.68856 44 ft 15 kts 354°
2026-05-08 09:02 30.42779 -86.68869 97 ft 61 kts 358°
2026-05-08 09:02 30.43402 -86.68901 249 ft 119 kts 357°
2026-05-08 09:02 30.44361 -86.68975 426 ft 155 kts 355°
2026-05-08 09:02 30.45382 -86.69097 550 ft 157 kts 353°
2026-05-08 09:03 30.46593 -86.69030 825 ft 190 kts 14°
2026-05-08 09:03 30.47739 -86.68276 981 ft 191 kts 49°
2026-05-08 09:03 30.48183 -86.66790 1192 ft 197 kts 89°
2026-05-08 09:03 30.47666 -86.65320 1434 ft 207 kts 129°
2026-05-08 09:04 30.46584 -86.64206 1714 ft 208 kts 139°
2026-05-08 09:04 30.45468 -86.63103 1872 ft 214 kts 138°
2026-05-08 09:04 30.44366 -86.61994 1927 ft 211 kts 139°
2026-05-08 09:04 30.43273 -86.60892 1953 ft 209 kts 139°
2026-05-08 09:05 30.42192 -86.59805 1977 ft 206 kts 139°
2026-05-08 09:05 30.41227 -86.58546 1988 ft 204 kts 125°
2026-05-08 09:05 30.40451 -86.57127 1997 ft 214 kts 119°
2026-05-08 09:05 30.39709 -86.55490 2025 ft 252 kts 115°
2026-05-08 09:06 30.38973 -86.53668 2040 ft 249 kts 114°
2026-05-08 09:06 30.38272 -86.51837 2028 ft 247 kts 112°
2026-05-08 09:06 30.37680 -86.49970 2012 ft 246 kts 108°
2026-05-08 09:06 30.37146 -86.48093 2001 ft 245 kts 107°
2026-05-08 09:07 30.36630 -86.46220 2000 ft 245 kts 107°
2026-05-08 09:07 30.36113 -86.44338 2005 ft 245 kts 107°
2026-05-08 09:07 30.35596 -86.42460 2005 ft 245 kts 107°
2026-05-08 09:07 30.35075 -86.40580 2006 ft 245 kts 107°
2026-05-08 09:08 30.34561 -86.38697 2002 ft 245 kts 108°
2026-05-08 09:08 30.34038 -86.36828 2007 ft 244 kts 108°
2026-05-08 09:08 30.33513 -86.34955 2008 ft 245 kts 108°
2026-05-08 09:08 30.32992 -86.33077 2009 ft 245 kts 108°
2026-05-08 09:09 30.32469 -86.31198 2012 ft 246 kts 108°
2026-05-08 09:09 30.31945 -86.29314 2009 ft 246 kts 108°
2026-05-08 09:09 30.31419 -86.27429 2012 ft 246 kts 108°
2026-05-08 09:09 30.30895 -86.25549 2004 ft 246 kts 108°
2026-05-08 09:10 30.30372 -86.23671 2018 ft 245 kts 108°
2026-05-08 09:10 30.29850 -86.21795 2016 ft 245 kts 108°
2026-05-08 09:10 30.29325 -86.19919 2012 ft 245 kts 108°
2026-05-08 09:10 30.28802 -86.18044 2016 ft 245 kts 108°
2026-05-08 09:11 30.28275 -86.16166 2003 ft 246 kts 108°
2026-05-08 09:11 30.27748 -86.14282 2011 ft 247 kts 109°
2026-05-08 09:11 30.27216 -86.12387 2015 ft 248 kts 108°
2026-05-08 09:11 30.26685 -86.10482 2024 ft 249 kts 108°
2026-05-08 09:12 30.26147 -86.08568 2021 ft 250 kts 108°
2026-05-08 09:12 30.25610 -86.06652 2018 ft 251 kts 108°
2026-05-08 09:12 30.25073 -86.04728 2018 ft 252 kts 108°
2026-05-08 09:12 30.24530 -86.02804 2013 ft 252 kts 108°
2026-05-08 09:13 30.23989 -86.00877 2013 ft 252 kts 108°
2026-05-08 09:13 30.23454 -85.98978 2009 ft 252 kts 108°
2026-05-08 09:13 30.22915 -85.97054 2016 ft 251 kts 109°
2026-05-08 09:13 30.22374 -85.95134 2012 ft 251 kts 109°
2026-05-08 09:14 30.21830 -85.93213 2006 ft 251 kts 109°
2026-05-08 09:14 30.21288 -85.91292 2006 ft 251 kts 109°
2026-05-08 09:14 30.20746 -85.89369 2006 ft 252 kts 108°
2026-05-08 09:14 30.20204 -85.87445 2006 ft 251 kts 108°
2026-05-08 09:15 30.19662 -85.85525 2004 ft 251 kts 108°
2026-05-08 09:15 30.19121 -85.83602 2003 ft 251 kts 109°
2026-05-08 09:15 30.18576 -85.81682 2005 ft 252 kts 109°
2026-05-08 09:15 30.18028 -85.79752 2007 ft 253 kts 109°
2026-05-08 09:16 30.17480 -85.77818 2004 ft 253 kts 108°
2026-05-08 09:16 30.16935 -85.75889 2007 ft 253 kts 109°
2026-05-08 09:16 30.16387 -85.73953 2005 ft 253 kts 109°
2026-05-08 09:16 30.15839 -85.72016 2005 ft 254 kts 109°
2026-05-08 09:17 30.15285 -85.70072 2003 ft 255 kts 108°
2026-05-08 09:17 30.14731 -85.68126 1991 ft 255 kts 109°
2026-05-08 09:17 30.14179 -85.66185 1986 ft 254 kts 108°
2026-05-08 09:17 30.13630 -85.64249 1983 ft 253 kts 109°
2026-05-08 09:18 30.13087 -85.62342 1984 ft 253 kts 108°
2026-05-08 09:18 30.12530 -85.60389 1986 ft 253 kts 108°
2026-05-08 09:18 30.11988 -85.58484 1986 ft 253 kts 108°
2026-05-08 09:18 30.11431 -85.56530 1986 ft 253 kts 109°
2026-05-08 09:19 30.10882 -85.54598 1989 ft 254 kts 109°
2026-05-08 09:19 30.10335 -85.52691 1991 ft 254 kts 109°
2026-05-08 09:19 30.09782 -85.50756 1997 ft 254 kts 108°
2026-05-08 09:19 30.09230 -85.48822 1998 ft 254 kts 108°
2026-05-08 09:20 30.08669 -85.46858 1993 ft 254 kts 109°
2026-05-08 09:20 30.08123 -85.44949 1989 ft 254 kts 109°
2026-05-08 09:20 30.07568 -85.43012 1978 ft 254 kts 109°
2026-05-08 09:20 30.07010 -85.41079 1978 ft 254 kts 109°
2026-05-08 09:21 30.06457 -85.39143 1972 ft 253 kts 108°
2026-05-08 09:21 30.05906 -85.37216 1968 ft 253 kts 108°
2026-05-08 09:22 30.02575 -85.25626 1966 ft 255 kts 109°
2026-05-08 09:23 30.02016 -85.23680 1966 ft 256 kts 109°
2026-05-08 09:23 30.01451 -85.21733 1967 ft 257 kts 109°
2026-05-08 09:23 30.00886 -85.19779 1965 ft 257 kts 109°
2026-05-08 09:23 30.00323 -85.17824 1958 ft 256 kts 109°
2026-05-08 09:24 29.99760 -85.15880 1957 ft 256 kts 109°
2026-05-08 09:24 29.99197 -85.13930 1961 ft 256 kts 109°
2026-05-08 09:24 29.98635 -85.11986 1966 ft 256 kts 109°
2026-05-08 09:24 29.98072 -85.10038 1966 ft 256 kts 109°
2026-05-08 09:25 29.97515 -85.08114 1971 ft 256 kts 109°
2026-05-08 09:25 29.96950 -85.06172 1967 ft 256 kts 109°
2026-05-08 09:25 29.96388 -85.04228 1969 ft 256 kts 109°
2026-05-08 09:25 29.95823 -85.02282 1971 ft 256 kts 109°
2026-05-08 09:26 29.95258 -85.00333 1973 ft 256 kts 108°
2026-05-08 09:26 29.94692 -84.98386 1974 ft 256 kts 109°
2026-05-08 09:26 29.94127 -84.96440 1978 ft 256 kts 109°
2026-05-08 09:26 29.93562 -84.94500 1974 ft 256 kts 108°
2026-05-08 09:27 29.92998 -84.92557 1977 ft 255 kts 108°
2026-05-08 09:27 29.92431 -84.90613 1976 ft 256 kts 108°
2026-05-08 09:27 29.91864 -84.88667 1977 ft 256 kts 109°
2026-05-08 09:27 29.91297 -84.86723 1981 ft 256 kts 109°
2026-05-08 09:28 29.90729 -84.84778 1983 ft 256 kts 109°
2026-05-08 09:28 29.90160 -84.82828 1988 ft 257 kts 108°
2026-05-08 09:28 29.89592 -84.80877 1985 ft 257 kts 109°
2026-05-08 09:28 29.89020 -84.78927 1986 ft 257 kts 109°
2026-05-08 09:29 29.88449 -84.76974 1984 ft 257 kts 109°
2026-05-08 09:29 29.87878 -84.75024 1984 ft 257 kts 109°
2026-05-08 09:29 29.87315 -84.73098 1980 ft 257 kts 109°
2026-05-08 09:29 29.86743 -84.71152 1981 ft 257 kts 109°
2026-05-08 09:30 29.86174 -84.69204 1975 ft 256 kts 109°
2026-05-08 09:30 29.85602 -84.67259 1977 ft 256 kts 109°
2026-05-08 09:30 29.85031 -84.65312 1981 ft 257 kts 109°
2026-05-08 09:30 29.84456 -84.63361 1984 ft 258 kts 108°
2026-05-08 09:31 29.83884 -84.61403 1989 ft 258 kts 108°
2026-05-08 09:31 29.83308 -84.59443 1987 ft 258 kts 109°
2026-05-08 09:31 29.82730 -84.57482 1993 ft 259 kts 109°
2026-05-08 09:31 29.82150 -84.55518 1989 ft 259 kts 108°
2026-05-08 09:32 29.81572 -84.53555 1985 ft 259 kts 108°
2026-05-08 09:32 29.80993 -84.51594 1990 ft 258 kts 108°
2026-05-08 09:32 29.80419 -84.49640 1986 ft 258 kts 108°
2026-05-08 09:32 29.79841 -84.47684 1988 ft 258 kts 108°
2026-05-08 09:33 29.79264 -84.45727 1992 ft 258 kts 108°
2026-05-08 09:33 29.78685 -84.43771 1996 ft 258 kts 108°
2026-05-08 09:33 29.78108 -84.41820 1998 ft 258 kts 109°
2026-05-08 09:33 29.77724 -84.40521 1999 ft 259 kts 109°
2026-05-08 09:34 29.77143 -84.38561 1997 ft 258 kts 109°
2026-05-08 09:34 29.76563 -84.36602 1999 ft 258 kts 109°
2026-05-08 09:34 29.75982 -84.34643 2005 ft 259 kts 109°
2026-05-08 09:34 29.75402 -84.32686 2003 ft 259 kts 109°
2026-05-08 09:35 29.74822 -84.30731 1998 ft 258 kts 109°
2026-05-08 09:35 29.74241 -84.28781 1996 ft 258 kts 108°
2026-05-08 09:35 29.73662 -84.26823 1998 ft 259 kts 109°
2026-05-08 09:35 29.73079 -84.24865 1992 ft 258 kts 109°
2026-05-08 09:36 29.72496 -84.22909 1987 ft 259 kts 109°
2026-05-08 09:36 29.71913 -84.20947 1997 ft 259 kts 108°
2026-05-08 09:36 29.71533 -84.19669 1998 ft 259 kts 109°
2026-05-08 09:36 29.70949 -84.17712 2006 ft 259 kts 108°
2026-05-08 09:37 29.70365 -84.15748 2012 ft 260 kts 109°
2026-05-08 09:37 29.69777 -84.13780 2009 ft 260 kts 109°
2026-05-08 09:37 29.69191 -84.11805 1997 ft 262 kts 109°
2026-05-08 09:37 29.68597 -84.09825 1999 ft 262 kts 109°
2026-05-08 09:38 29.68001 -84.07845 2000 ft 262 kts 109°
2026-05-08 09:38 29.67409 -84.05855 2005 ft 263 kts 109°
2026-05-08 09:38 29.66821 -84.03890 2002 ft 264 kts 109°
2026-05-08 09:38 29.66222 -84.01890 1996 ft 264 kts 110°
2026-05-08 09:39 29.65629 -83.99909 1993 ft 263 kts 110°
2026-05-08 09:39 29.65025 -83.97897 1992 ft 262 kts 110°
2026-05-08 09:39 29.64430 -83.95919 2000 ft 262 kts 109°
2026-05-08 09:39 29.63842 -83.93954 2001 ft 263 kts 109°
2026-05-08 09:40 29.63246 -83.91967 1996 ft 263 kts 110°
2026-05-08 09:40 29.62650 -83.89981 1993 ft 262 kts 110°
2026-05-08 09:40 29.62059 -83.88024 1999 ft 263 kts 110°
2026-05-08 09:40 29.61461 -83.86038 2003 ft 263 kts 109°
2026-05-08 09:41 29.60862 -83.84046 2007 ft 264 kts 109°
2026-05-08 09:41 29.60266 -83.82058 2002 ft 264 kts 110°
2026-05-08 09:41 29.59662 -83.80059 2001 ft 264 kts 110°
2026-05-08 09:41 29.59062 -83.78071 1995 ft 265 kts 110°
2026-05-08 09:42 29.58455 -83.76070 2001 ft 264 kts 110°
2026-05-08 09:42 29.57853 -83.74072 1997 ft 264 kts 109°
2026-05-08 09:42 29.57256 -83.72089 1999 ft 264 kts 109°
2026-05-08 09:42 29.56654 -83.70094 2003 ft 264 kts 110°
2026-05-08 09:43 29.56053 -83.68108 1999 ft 264 kts 110°
2026-05-08 09:43 29.55447 -83.66117 1999 ft 263 kts 110°
2026-05-08 09:43 29.54844 -83.64133 1996 ft 262 kts 110°
2026-05-08 09:43 29.54248 -83.62159 1999 ft 262 kts 109°
2026-05-08 09:44 29.53656 -83.60202 1996 ft 261 kts 110°
2026-05-08 09:44 29.53064 -83.58241 1997 ft 261 kts 110°
2026-05-08 09:44 29.52462 -83.56266 2001 ft 262 kts 110°
2026-05-08 09:44 29.51863 -83.54308 2005 ft 263 kts 110°
2026-05-08 09:45 29.51252 -83.52306 2010 ft 264 kts 109°
2026-05-08 09:45 29.50650 -83.50311 2011 ft 264 kts 109°
2026-05-08 09:45 29.50043 -83.48309 2003 ft 265 kts 110°
2026-05-08 09:45 29.49433 -83.46315 2004 ft 266 kts 110°
2026-05-08 09:46 29.48831 -83.44333 1994 ft 266 kts 110°
2026-05-08 09:46 29.48215 -83.42317 1993 ft 265 kts 110°
2026-05-08 09:46 29.47611 -83.40347 2003 ft 264 kts 110°
2026-05-08 09:46 29.46999 -83.38337 2007 ft 265 kts 110°
2026-05-08 09:47 29.46395 -83.36363 2012 ft 265 kts 110°
2026-05-08 09:47 29.45784 -83.34360 2005 ft 265 kts 109°
2026-05-08 09:47 29.45175 -83.32370 2002 ft 265 kts 110°
2026-05-08 09:47 29.44563 -83.30368 2002 ft 265 kts 110°
2026-05-08 09:48 29.43952 -83.28368 2003 ft 265 kts 110°
2026-05-08 09:48 29.43342 -83.26381 2008 ft 265 kts 110°
2026-05-08 09:48 29.42728 -83.24381 2010 ft 265 kts 110°
2026-05-08 09:48 29.42117 -83.22395 2011 ft 265 kts 110°
2026-05-08 09:49 29.41505 -83.20403 2015 ft 264 kts 110°
2026-05-08 09:49 29.40896 -83.18425 2019 ft 264 kts 109°
2026-05-08 09:49 29.40287 -83.16431 2022 ft 265 kts 109°
2026-05-08 09:49 29.39673 -83.14434 2010 ft 265 kts 110°
2026-05-08 09:50 29.39057 -83.12431 2006 ft 266 kts 110°
2026-05-08 09:50 29.38443 -83.10440 2003 ft 266 kts 110°
2026-05-08 09:50 29.37831 -83.08460 2007 ft 266 kts 109°
2026-05-08 09:50 29.37209 -83.06441 2010 ft 266 kts 109°
2026-05-08 09:51 29.36600 -83.04460 2012 ft 266 kts 109°
2026-05-08 09:51 29.35978 -83.02442 2012 ft 266 kts 110°
2026-05-08 09:51 29.35379 -83.00506 2007 ft 266 kts 110°
2026-05-08 09:51 29.34761 -82.98506 2006 ft 266 kts 110°
2026-05-08 09:52 29.34131 -82.96476 2006 ft 266 kts 110°
2026-05-08 09:52 29.33522 -82.94514 2005 ft 266 kts 109°
2026-05-08 09:52 29.32905 -82.92513 2007 ft 266 kts 110°
2026-05-08 09:52 29.32283 -82.90501 2013 ft 266 kts 110°
2026-05-08 09:53 29.31671 -82.88523 2009 ft 266 kts 110°
2026-05-08 09:53 29.31041 -82.86503 2006 ft 267 kts 109°
2026-05-08 09:53 29.30426 -82.84516 2010 ft 267 kts 109°
2026-05-08 09:53 29.29801 -82.82505 2012 ft 267 kts 109°
2026-05-08 09:54 29.29182 -82.80510 2020 ft 267 kts 109°
2026-05-08 09:54 29.28560 -82.78506 2025 ft 266 kts 110°
2026-05-08 09:54 29.27932 -82.76487 2020 ft 267 kts 110°
2026-05-08 09:54 29.27320 -82.74523 2014 ft 268 kts 110°
2026-05-08 09:55 29.26691 -82.72507 2011 ft 268 kts 110°
2026-05-08 09:55 29.26065 -82.70500 2013 ft 269 kts 110°
2026-05-08 09:55 29.25536 -82.68489 2009 ft 265 kts 98°
2026-05-08 09:55 29.25577 -82.66399 2014 ft 261 kts 82°
2026-05-08 09:56 29.25752 -82.64324 2012 ft 263 kts 83°
2026-05-08 09:56 29.25907 -82.62234 2011 ft 263 kts 84°
2026-05-08 09:56 29.26061 -82.60161 2016 ft 262 kts 83°
2026-05-08 09:56 29.26209 -82.58073 2014 ft 263 kts 84°
2026-05-08 09:57 29.26519 -82.53912 2019 ft 262 kts 83°
2026-05-08 09:57 29.26677 -82.51828 2017 ft 262 kts 83°
2026-05-08 09:57 29.26837 -82.49756 2016 ft 262 kts 84°
2026-05-08 09:58 29.27000 -82.47674 2021 ft 262 kts 83°
2026-05-08 09:58 29.27156 -82.45588 2030 ft 262 kts 84°
2026-05-08 09:58 29.27313 -82.43517 2030 ft 262 kts 83°
2026-05-08 09:58 29.27469 -82.41430 2028 ft 262 kts 83°
2026-05-08 09:59 29.27621 -82.39356 2036 ft 262 kts 84°
2026-05-08 09:59 29.27769 -82.37269 2028 ft 263 kts 83°
2026-05-08 09:59 29.27910 -82.35177 2034 ft 263 kts 84°
2026-05-08 09:59 29.28056 -82.33103 2031 ft 262 kts 83°
2026-05-08 10:00 29.28204 -82.31017 2021 ft 262 kts 83°
2026-05-08 10:00 29.28351 -82.28953 2031 ft 263 kts 83°
2026-05-08 10:00 29.28502 -82.26846 2035 ft 263 kts 83°
2026-05-08 10:00 29.28650 -82.24783 2029 ft 263 kts 83°
2026-05-08 10:01 29.28800 -82.22677 2035 ft 263 kts 83°
2026-05-08 10:01 29.28948 -82.20611 2032 ft 263 kts 83°
2026-05-08 10:01 29.29101 -82.18518 2031 ft 263 kts 83°
2026-05-08 10:01 29.29255 -82.16407 2028 ft 264 kts 83°
2026-05-08 10:02 29.29402 -82.14332 2025 ft 264 kts 83°
2026-05-08 10:02 29.29558 -82.12205 2022 ft 264 kts 83°
2026-05-08 10:02 29.29715 -82.10150 2011 ft 263 kts 83°
2026-05-08 10:02 29.29869 -82.08054 2016 ft 264 kts 83°
2026-05-08 10:03 29.30028 -82.05970 2017 ft 264 kts 83°
2026-05-08 10:03 29.30183 -82.03869 2020 ft 264 kts 83°
2026-05-08 10:03 29.30339 -82.01769 2018 ft 264 kts 83°
2026-05-08 10:03 29.30491 -81.99683 2013 ft 264 kts 83°
2026-05-08 10:04 29.30646 -81.97582 2014 ft 264 kts 83°
2026-05-08 10:04 29.30802 -81.95488 2021 ft 265 kts 83°
2026-05-08 10:04 29.30953 -81.93383 2016 ft 264 kts 83°
2026-05-08 10:04 29.31103 -81.91280 2012 ft 264 kts 83°
2026-05-08 10:05 29.31255 -81.89189 2014 ft 264 kts 83°
2026-05-08 10:05 29.31406 -81.87083 2014 ft 265 kts 83°
2026-05-08 10:05 29.31561 -81.84986 2021 ft 265 kts 83°
2026-05-08 10:05 29.31709 -81.82874 2023 ft 265 kts 83°
2026-05-08 10:06 29.31862 -81.80762 2025 ft 265 kts 83°
2026-05-08 10:06 29.32021 -81.78670 2020 ft 264 kts 83°
2026-05-08 10:06 29.32175 -81.76567 2020 ft 264 kts 83°
2026-05-08 10:06 29.32326 -81.74459 2026 ft 265 kts 83°
2026-05-08 10:07 29.32483 -81.72364 2023 ft 265 kts 83°
2026-05-08 10:07 29.32640 -81.70255 2019 ft 265 kts 83°
2026-05-08 10:07 29.32799 -81.68144 2017 ft 266 kts 83°
2026-05-08 10:07 29.32960 -81.66043 2015 ft 266 kts 83°
2026-05-08 10:08 29.33124 -81.63958 2007 ft 265 kts 83°
2026-05-08 10:08 29.33279 -81.61816 2012 ft 266 kts 83°
2026-05-08 10:08 29.33435 -81.59734 2011 ft 267 kts 83°
2026-05-08 10:08 29.33596 -81.57612 2010 ft 267 kts 83°
2026-05-08 10:09 29.33755 -81.55505 2012 ft 266 kts 83°
2026-05-08 10:09 29.33916 -81.53383 2012 ft 267 kts 83°
2026-05-08 10:09 29.34076 -81.51234 2011 ft 267 kts 83°
2026-05-08 10:09 29.34228 -81.49150 2011 ft 267 kts 83°
2026-05-08 10:10 29.34391 -81.47024 2004 ft 267 kts 83°
2026-05-08 10:10 29.34550 -81.44918 2003 ft 266 kts 83°
2026-05-08 10:10 29.34705 -81.42792 2008 ft 268 kts 83°
2026-05-08 10:10 29.34870 -81.40637 2001 ft 267 kts 83°
2026-05-08 10:11 29.35025 -81.38555 2003 ft 267 kts 83°
2026-05-08 10:11 29.35189 -81.36433 2009 ft 267 kts 83°
2026-05-08 10:11 29.35353 -81.34322 2013 ft 267 kts 83°
2026-05-08 10:11 29.35514 -81.32197 2011 ft 266 kts 83°
2026-05-08 10:12 29.35669 -81.30078 2013 ft 266 kts 83°
2026-05-08 10:12 29.35818 -81.27970 2020 ft 267 kts 83°
2026-05-08 10:12 29.35967 -81.25837 2017 ft 268 kts 83°
2026-05-08 10:12 29.36111 -81.23684 2007 ft 268 kts 83°
2026-05-08 10:13 29.36255 -81.21580 1999 ft 267 kts 83°
2026-05-08 10:13 29.36398 -81.19457 2001 ft 267 kts 83°
2026-05-08 10:13 29.36532 -81.17347 2006 ft 266 kts 83°
2026-05-08 10:13 29.36673 -81.15225 2014 ft 267 kts 83°
2026-05-08 10:14 29.36820 -81.13113 2012 ft 267 kts 83°
2026-05-08 10:14 29.36961 -81.10991 2016 ft 266 kts 83°
2026-05-08 10:14 29.37104 -81.08863 2019 ft 268 kts 83°
2026-05-08 10:14 29.37254 -81.06745 2011 ft 267 kts 83°
2026-05-08 10:15 29.37407 -81.04622 2009 ft 266 kts 83°
2026-05-08 10:15 29.37562 -81.02518 2012 ft 266 kts 83°
2026-05-08 10:15 29.37716 -81.00396 2016 ft 267 kts 83°
2026-05-08 10:15 29.37872 -80.98267 2012 ft 267 kts 83°
2026-05-08 10:16 29.38036 -80.96156 2008 ft 267 kts 83°
2026-05-08 10:16 29.38190 -80.94035 2012 ft 266 kts 83°
2026-05-08 10:16 29.38094 -80.91946 1997 ft 267 kts 104°
2026-05-08 10:16 29.37201 -80.90120 1987 ft 262 kts 135°
2026-05-08 10:17 29.35683 -80.89045 1995 ft 254 kts 165°
2026-05-08 10:17 29.33937 -80.88581 2013 ft 262 kts 171°
2026-05-08 10:17 29.32162 -80.88174 2017 ft 258 kts 172°
2026-05-08 10:17 29.30420 -80.87782 2012 ft 256 kts 172°
2026-05-08 10:18 29.28666 -80.87392 2018 ft 256 kts 172°
2026-05-08 10:18 29.26910 -80.87020 2011 ft 256 kts 173°
2026-05-08 10:18 29.25205 -80.86554 2005 ft 260 kts 161°
2026-05-08 10:18 29.23597 -80.85599 2021 ft 264 kts 153°
2026-05-08 10:19 29.22009 -80.84584 2021 ft 260 kts 153°
2026-05-08 10:19 29.20434 -80.83573 2013 ft 258 kts 153°
2026-05-08 10:19 29.18855 -80.82557 2009 ft 259 kts 153°
2026-05-08 10:20 29.15703 -80.80520 2009 ft 260 kts 153°
2026-05-08 10:20 29.14147 -80.79513 2006 ft 256 kts 153°
2026-05-08 10:20 29.13124 -80.78850 1999 ft 247 kts 153°
2026-05-08 10:20 29.11187 -80.77590 1984 ft 236 kts 153°
2026-05-08 10:21 29.10242 -80.76969 1990 ft 230 kts 153°
2026-05-08 10:21 29.08888 -80.76071 1992 ft 220 kts 153°
2026-05-08 10:21 29.07595 -80.75204 2004 ft 212 kts 153°
2026-05-08 10:21 29.06341 -80.74364 1995 ft 204 kts 152°
2026-05-08 10:22 29.05136 -80.73558 1992 ft 195 kts 153°
2026-05-08 10:22 29.03984 -80.72844 2075 ft 185 kts 156°
2026-05-08 10:22 29.02850 -80.72295 2065 ft 168 kts 157°
2026-05-08 10:22 29.01834 -80.71786 2055 ft 152 kts 156°
2026-05-08 10:23 29.00939 -80.71306 2033 ft 136 kts 153°
2026-05-08 10:23 29.00141 -80.70863 2020 ft 115 kts 154°
2026-05-08 10:23 28.99519 -80.70522 2004 ft 87 kts 154°
2026-05-08 10:23 28.99017 -80.70238 1904 ft 82 kts 154°
2026-05-08 10:24 28.98479 -80.69927 1908 ft 88 kts 153°
2026-05-08 10:24 28.97921 -80.69600 1962 ft 90 kts 153°
2026-05-08 10:24 28.97345 -80.69260 1996 ft 92 kts 153°
2026-05-08 10:24 28.96770 -80.68920 2001 ft 91 kts 153°
2026-05-08 10:25 28.96200 -80.68581 2003 ft 89 kts 153°
2026-05-08 10:25 28.95605 -80.68230 1966 ft 105 kts 153°
2026-05-08 10:25 28.94989 -80.67870 1924 ft 95 kts 153°
2026-05-08 10:25 28.94387 -80.67512 1880 ft 98 kts 153°
2026-05-08 10:26 28.93793 -80.67157 1845 ft 98 kts 153°
2026-05-08 10:26 28.93205 -80.66808 1769 ft 93 kts 153°
2026-05-08 10:26 28.92613 -80.66453 1731 ft 98 kts 153°
2026-05-08 10:26 28.92083 -80.66125 1679 ft 84 kts 153°
2026-05-08 10:27 28.91580 -80.65818 1591 ft 83 kts 153°
2026-05-08 10:27 28.91073 -80.65511 1533 ft 80 kts 153°
2026-05-08 10:27 28.90573 -80.65215 1510 ft 83 kts 155°
2026-05-08 10:27 28.90042 -80.65048 1519 ft 75 kts 183°
2026-05-08 10:28 28.89568 -80.65246 1630 ft 70 kts 226°
2026-05-08 10:28 28.89351 -80.65696 1695 ft 64 kts 263°
2026-05-08 10:28 28.89342 -80.66157 1706 ft 54 kts 276°
2026-05-08 10:28 28.89294 -80.66600 1687 ft 57 kts 239°
2026-05-08 10:29 28.89167 -80.66717 1443 ft 20 kts 253°
2026-05-08 10:29 28.89091 -80.66885 628 ft 26 kts 127°
2026-05-08 10:29 28.89135 -80.66891 3 ft 5 kts 117°